SL-14 DEB, 45339

Orbit data source: Space-Track

SL-14 DEB, 45339 is space debris in LEO originally from a launch on Thu, 15 Aug 1991 UTC launched from the Plesetsk Missile And Space Complex (PKMTR). Debris objects in space refer to the collection of defunct objects orbiting the Earth. Examples of debris include non-operational satellites, rocket bodies, and fragments generated from explosions, collisions, or faulty payload assembly.

Loading next visibility...
Identifier
45339, 1991-056CD
Orbit
LEO
Country
Flag of CISCIS
Related business
Manufacturer
Unknown
Mission
Spacecraft
Bus & Motor
Unknown
Mass
Unknown
Launch date (UTC)
1991-08-15 (34 years ago)
Launch vehicle
Unknown
Launch site
Plesetsk Missile And Space Complex (PKMTR)
Object type
Payload
Rocket body
Debris
Shape & HBR
Unknown shape, 0.1 m
Radar Cross Section
Small (<0.1 m²)

Expand to show TLE details & history
Last TLE update: 16 hours ago

TLE from 16 hours ago
0 SL-14 DEB
1 45339U 91056CD  25291.20727374  .00014618  00000-0  14960-1 0  9997
2 45339  82.4999 206.8464 0127513 338.1323  21.4415 13.72812280277848
Epoch: 2025-10-18T04:58Z
TLE epoch observation values (Epoch: 2025-10-18T04:58:28.451Z)
Latitude
-0.00003°
Longitude
105.28625°
Altitude
905.079 km
Speed
7.443 km/s
True Right ascension
13h 47m 23s
True Declination
0° 00' 00"
Sunlit
Object was in daylight at epoch
Visualization orbit readout
Latitude
Unknown
Longitude
Unknown
Altitude
Unknown
Speed
Unknown
Apparent Right ascension
Unknown
Apparent Declination
Unknown
Sunlit
N/A
Visualization observer readout
Local Sidereal Time
16:02:01
Azimuth
Unknown
Elevation
Unknown
Doppler factor
Unknown
Orbital elements
Apogee altitude
1,080.571 km
Perigee altitude
892.75 km
Semi-major axis
7,364.797 km
Eccentricity
0.01275
Inclination
82.4999°
RAAN
206.8464°
Arg. of periapsis
338.1323°
True anomaly
21.98367°
Mean anomaly
21.4415°
Eccentric anomaly
21.71177°
Mean motion
3.43401 °/min
Orbital period
104.83 mins
BSTAR
0.01496
Loading maneuver chart data...
Computing Atmospheric mass density...
Loading historical data...
Loading historical data...
Loading historical data...
Loading historical data...
Loading historical data...
Loading historical data...
Loading historical data...

Documentation

Showing up to 5 results
|